Starlink 2732

operational
NORAD ID: 48646 Int'l Des: 2021-044 Owner: SPXS Country: US Constellation: starlink
LEOCIRCULARSTARLINK_TYPE

Über Starlink 2732

Beschreibung wird geladen...

Live-Position

3D-Globus wird geladen...

Nächste Überflüge

Höhenverlauf

Altitude vs Time

uPlot chart will show altitude changes over time

Zweizeiliger Elementsatz

1 48646U 21044J 26035.07630991 .00011665 00000-0 40498-3 0 9997
2 48646 53.1588 270.0237 0001172 92.5388 267.5747 15.30229145258686
Epoch: 4. Feb. 2026 • Age: 26 hours

Aktueller Status

Höhe 488.3 km
Geschwindigkeit 7.62 km/s
Subsatellitenpunkt -38.54°S, 29.31°E
Startdatum 26. Mai 2021
Alter 4.6 years
Typ internet

Technische Details

Klassifizierung Payload
Masse 260.00 kg
Trockenmasse 248.00 kg
Gesamtmasse 260.00 kg
Länge 0.20 m
Durchmesser 2.80 m
Spannweite 9.00 m
Form Box + pan
Hersteller SPXS
Bus-Typ Starlink
Phasenstatus In Orbit
Besitzer/Staat SPXS/US

Große Konstellationen

Loading constellations...